Location: Eaton Estates
(41.3089°N, 82.0057°W)
Time: 00:39:55
(UTC+00:00)

BEESAT 2 - Pass Details

Date: 03 April 2023
Orbit: 429 x 466 km, 64.9° (Epoch: 07 June)

Event Time Altitude Azimuth Distance (km) Brightness Sun altitude
Exits shadow 08:36:12 - 125° (SE) 1,897 ? -27.2°
Enters shadow 09:37:06 -67° 215° (SW) 12,212 ? -17.3°
Maximum altitude 10:13:16 78° 302° (WNW) 485 ? -10.9°
